[[{"header":{"parameterUnit":"m.s-1","parameterCategory":1,"la1":30.2991,"la2":30.254,"lo1":-89.0895,"lo2":-89.0444,"dy":0.0017,"dx":0.0017,"nx":28,"ny":28,"refTime":"2025-03-12T03:00:00:Z","depth":0,"parameterNumber":2,"parameterNumberName":"U-component_of_WINDS"},"data":[0,0,0,0,0,0,0,0,0,0,0,0,0,0,0,0,0,0,0,0,0,0,0,0,0,0,0,0,0,0,0,0,0,0,0,0,0,0,0,0,0,0,0,0,0,0,0,0,0,0,0,0,0,0,0,0,0,0,1.0886,1.0885,0,1.0827,1.0827,1.0826,1.0768,1.0767,1.0766,1.0765,1.0706,1.0706,1.0705,0,0,0,0,0,0,0,0,0,0,0,0,0,1.0946,1.0945,1.0886,1.0885,1.0884,1.0827,1.0827,1.0826,1.0768,1.0767,1.0766,1.0765,1.0707,1.0706,1.0705,0,0,0,0,0,0,0,0,0,0,0,0,0,1.0907,1.0945,1.0886,1.0848,1.0845,1.0828,1.0827,1.0826,1.0768,1.0767,1.0766,1.0764,1.0707,1.0706,1.0705,1.072,0,0,1.0701,1.07,0,0,0,0,0,0,0,0,1.0909,1.0905,1.0855,1.0851,1.0847,1.0803,1.0826,1.079,1.0768,1.0797,1.0765,1.0764,1.074,1.0736,1.0727,1.0717,1.0715,1.0701,1.07,1.0699,1.0699,0,0,0,0,0,0,0,1.0912,1.0907,1.0863,1.0854,1.0849,1.0834,1.0827,1.0819,1.0776,1.0794,1.079,1.0784,1.0737,1.0729,1.0726,1.0714,1.0701,1.07,1.0699,1.0698,1.0711,1.0712,0,0,0,0,0,0,1.0921,1.091,1.0865,1.0861,1.0876,1.0834,1.0826,1.0819,1.0776,1.0768,1.0785,1.0781,1.0731,1.0727,1.0723,1.0737,1.0699,1.0698,1.0697,1.071,1.0711,1.0712,0,0,0,0,0,0,1.0922,1.0917,1.0867,1.0884,1.0877,1.0834,1.0826,1.0818,1.0809,1.0768,1.076,1.0784,1.073,1.0725,1.0721,1.0734,1.0698,1.0696,1.0709,1.071,1.0712,1.0765,0,0,0,0,0,0,1.0924,1.0918,1.0924,1.0885,1.0876,1.0866,1.0827,1.0818,1.0807,1.0802,1.0766,1.0758,1.0729,1.0723,1.0719,1.0732,1.0695,1.0707,1.0709,1.0711,1.0762,1.0769,1.0774,0,0,0,0,0,1.0927,1.0942,1.0925,1.0919,1.0882,1.0867,1.0862,1.0827,1.0809,1.0814,1.0787,1.076,1.0733,1.0723,1.0719,1.0731,1.0706,1.0709,1.0711,1.0759,1.0767,1.0774,0,0,0,0,0,0,1.0985,1.0936,1.0916,1.092,1.0898,1.0857,1.0863,1.0837,1.082,1.0816,1.0774,1.0766,1.0766,1.0748,1.0737,1.0742,1.0716,1.0717,1.0754,1.0761,1.0767,1.0771,1.0694,0,0,0,0,0,1.0998,1.099,1.0948,1.0955,1.0944,1.0906,1.0897,1.0872,1.0848,1.0839,1.0812,1.0789,1.0775,1.0767,1.0752,1.0759,1.0749,1.0765,1.0771,1.0776,1.0778,1.0778,1.0784,1.072,1.072,1.072,0,0,1.1026,1.0998,1.0995,1.0966,1.0946,1.0937,1.0898,1.0891,1.0884,1.0838,1.0831,1.0811,1.0782,1.0783,1.0782,1.0768,1.0793,1.0779,1.0784,1.0782,1.0781,1.0787,1.0792,1.0722,1.0722,1.0722,0,0,1.1071,1.105,1.1052,1.1032,1.1002,1.0976,1.0976,1.0939,1.0923,1.0916,1.088,1.0871,1.0848,1.0829,1.0816,1.0852,1.0825,1.0848,1.0879,1.0879,1.0884,1.0888,1.0899,1.0904,1.085,1.085,1.085,0,1.1109,1.1094,1.1057,1.1051,1.1038,1.0995,1.0996,1.0979,1.0946,1.0938,1.0922,1.0891,1.087,1.0864,1.0872,1.0864,1.0862,1.0852,1.0887,1.089,1.0894,1.0904,1.0908,1.0853,1.0853,1.0852,1.0852,0,1.1142,1.1132,1.1138,1.1105,1.1093,1.1092,1.1053,1.1045,1.1021,1.0996,1.0988,1.096,1.0937,1.0934,1.0911,1.0925,1.0916,1.0894,1.0867,1.0903,1.0912,1.0915,1.0857,1.0856,1.0855,1.0855,0,0,1.1223,1.1168,1.1171,1.1155,1.1117,1.1109,1.1104,1.1082,1.1075,1.1053,1.1047,1.1028,1.1007,1.0992,1.0966,1.0967,1.0994,1.0944,1.0943,1.0953,1.1005,1.1021,1.1026,1.0976,1.0977,1.0977,1.1007,0,1.1261,1.125,1.1215,1.1214,1.1204,1.1161,1.1157,1.1133,1.1109,1.1097,1.107,1.1056,1.103,1.1021,1.1019,1.0991,1.1004,1.0989,1.097,1.0969,1.0977,1.1031,1.1048,1.1078,1.101,1.1011,1.1011,0,1.1304,1.1283,1.1282,1.1242,1.1236,1.1233,1.1208,1.1197,1.1169,1.1151,1.1134,1.1104,1.1096,1.1071,1.1058,1.1048,1.1038,1.1023,1.1023,1.1019,1.0992,1.1028,1.1086,1.109,1.1016,1.1016,1.1015,0,1.1361,1.1333,1.1328,1.1316,1.127,1.1269,1.125,1.122,1.1208,1.1186,1.1177,1.1155,1.1143,1.1126,1.1091,1.1076,1.1081,1.1054,1.1065,1.1066,1.1068,1.1068,1.1125,1.1064,1.1064,1.1063,1.1063,0,1.1406,1.1407,1.1353,1.135,1.1348,1.1307,1.1307,1.1283,1.1257,1.1247,1.121,1.1202,1.1156,1.1142,1.1115,1.1107,1.1102,1.1087,1.1079,1.109,1.1092,1.1082,1.1079,1.1065,1.1064,1.1064,1.1064,0,1.147,1.1435,1.1426,1.1383,1.1372,1.1372,1.1335,1.133,1.1303,1.1291,1.1286,1.1244,1.1226,1.1189,1.1161,1.1142,1.1141,1.1128,1.115,1.1145,1.1159,1.1157,1.121,1.1214,1.1152,1.1153,1.1153,0,1.1501,1.15,1.1457,1.1447,1.143,1.1416,1.1402,1.1362,1.135,1.1316,1.1314,1.1293,1.1273,1.1246,1.1213,1.119,1.1176,1.1196,1.1173,1.1182,1.1175,1.1175,1.1173,1.1202,1.1202,1.1203,1.1204,0,1.1559,1.1541,1.1524,1.15,1.1485,1.1464,1.1442,1.1436,1.139,1.1378,1.1359,1.1344,1.1314,1.1293,1.1265,1.1244,1.1216,1.1211,1.1212,1.1223,1.1235,1.1227,1.1163,1.121,1.121,1.1209,1.1209,1.1209,1.1606,1.1602,1.1571,1.1552,1.153,1.151,1.1502,1.1473,1.1456,1.1429,1.1406,1.1388,1.1357,1.1316,1.1298,1.1282,1.1269,1.1271,1.1271,1.1272,1.1276,1.1238,1.1277,1.1277,1.1277,1.1277,1.1276,0,1.1661,1.1638,1.1621,1.159,1.1575,1.1549,1.1522,1.1511,1.1495,1.1469,1.145,1.1427,1.1405,1.137,1.1345,1.1339,1.1325,1.1334,1.1334,1.1329,1.129,1.1291,1.1346,1.1346,1.1346,1.1346,1.1346,1.1346,1.1687,1.1679,1.1657,1.1636,1.1613,1.1595,1.1582,1.1562,1.154,1.1515,1.1497,1.1474,1.1443,1.1415,1.1394,1.1384,1.1376,1.1388,1.1374,1.1339,1.1332,1.1326,1.1326,1.1387,1.1388,1.1414,1.1414,1.1414]},{"header":{"parameterUnit":"m.s-1","parameterCategory":1,"la1":30.2991,"la2":30.254,"lo1":-89.0895,"lo2":-89.0444,"dy":0.0017,"dx":0.0017,"nx":28,"ny":28,"refTime":"2025-03-12T03:00:00:Z","depth":0,"parameterNumber":3,"parameterNumberName":"V-component_of_WINDS"},"data":[0,0,0,0,0,0,0,0,0,0,0,0,0,0,0,0,0,0,0,0,0,0,0,0,0,0,0,0,0,0,0,0,0,0,0,0,0,0,0,0,0,0,0,0,0,0,0,0,0,0,0,0,0,0,0,0,0,0,2.3022,2.3022,0,2.3045,2.3045,2.3045,2.3028,2.3027,2.3027,2.3026,2.3052,2.3053,2.3054,0,0,0,0,0,0,0,0,0,0,0,0,0,2.2963,2.2964,2.3022,2.3022,2.3022,2.3045,2.3045,2.3045,2.3028,2.3027,2.3026,2.3026,2.3051,2.3053,2.3055,0,0,0,0,0,0,0,0,0,0,0,0,0,2.2987,2.2964,2.3022,2.3016,2.3016,2.3045,2.3045,2.3045,2.3028,2.3027,2.3026,2.3025,2.3051,2.3053,2.3055,2.309,0,0,2.3061,2.3062,0,0,0,0,0,0,0,0,2.2986,2.299,2.3017,2.3017,2.3016,2.3032,2.3034,2.3061,2.3029,2.3024,2.3026,2.3025,2.3046,2.3049,2.3056,2.3092,2.3093,2.3061,2.3063,2.3064,2.3064,0,0,0,0,0,0,0,2.2984,2.2989,2.3031,2.3017,2.3017,2.3013,2.3015,2.3039,2.3041,2.3024,2.3023,2.3026,2.3046,2.3054,2.3056,2.3093,2.3061,2.3063,2.3064,2.3065,2.3158,2.3159,0,0,0,0,0,0,2.2983,2.2987,2.303,2.3031,2.2998,2.3015,2.3017,2.3028,2.3041,2.3042,2.3027,2.3025,2.3051,2.3054,2.3057,2.3099,2.3064,2.3066,2.3067,2.3157,2.3158,2.316,0,0,0,0,0,0,2.2982,2.2987,2.3029,2.3009,2.3014,2.3017,2.303,2.3029,2.3037,2.3043,2.3043,2.3034,2.305,2.3054,2.3082,2.31,2.3066,2.3068,2.3156,2.3157,2.3159,2.3183,0,0,0,0,0,0,2.298,2.2987,2.3,2.3009,2.3015,2.3054,2.3031,2.3031,2.304,2.3038,2.305,2.3051,2.3049,2.3079,2.3084,2.3102,2.307,2.3154,2.3156,2.3159,2.3181,2.3186,2.319,0,0,0,0,0,2.2978,2.3007,2.3001,2.3006,2.3032,2.3055,2.3058,2.3055,2.3042,2.3056,2.3059,2.305,2.3096,2.3082,2.3087,2.3106,2.3153,2.3156,2.3158,2.3179,2.3185,2.319,0,0,0,0,0,0,2.3001,2.3008,2.3002,2.3034,2.3044,2.3052,2.3069,2.3062,2.3076,2.3073,2.307,2.3072,2.3101,2.3106,2.309,2.3141,2.3123,2.3127,2.3136,2.3142,2.3146,2.3145,2.3072,0,0,0,0,0,2.301,2.3027,2.3032,2.3061,2.3066,2.3066,2.3076,2.3073,2.3083,2.3087,2.3093,2.3103,2.312,2.3131,2.3147,2.3181,2.3183,2.3197,2.3201,2.3205,2.3209,2.3226,2.3232,2.3169,2.3169,2.3169,0,0,2.3029,2.3034,2.3046,2.3065,2.3072,2.309,2.307,2.309,2.3104,2.309,2.3117,2.3121,2.3132,2.3163,2.3177,2.3168,2.3226,2.3208,2.3211,2.3213,2.323,2.3236,2.3241,2.3171,2.317,2.317,0,0,2.3071,2.3078,2.3101,2.3108,2.3118,2.3118,2.3124,2.3132,2.3134,2.316,2.3151,2.3166,2.3195,2.3204,2.3212,2.3255,2.3248,2.326,2.3284,2.3301,2.3306,2.3311,2.3326,2.3332,2.3264,2.3264,2.3264,0,2.3094,2.312,2.3115,2.3135,2.3144,2.3131,2.3155,2.3162,2.3177,2.3184,2.3173,2.3208,2.3215,2.3247,2.3258,2.3265,2.3271,2.326,2.3306,2.331,2.3314,2.3329,2.3335,2.3266,2.3265,2.3265,2.3265,0,2.3146,2.3164,2.3182,2.3196,2.3206,2.3229,2.3227,2.3238,2.3233,2.3234,2.326,2.3268,2.3284,2.3291,2.3288,2.3323,2.3317,2.3306,2.3288,2.3322,2.3336,2.3342,2.3268,2.3267,2.3267,2.3266,0,0,2.3206,2.3215,2.3222,2.3227,2.3237,2.3251,2.3272,2.3287,2.3296,2.3307,2.3324,2.3348,2.3338,2.3347,2.3343,2.3359,2.3392,2.3346,2.3346,2.3354,2.3431,2.344,2.3446,2.3387,2.3388,2.3388,2.343,0,2.325,2.3286,2.3281,2.3315,2.3332,2.3319,2.3337,2.3345,2.3346,2.336,2.3361,2.3378,2.3363,2.3368,2.3383,2.3385,2.3408,2.3382,2.3403,2.3404,2.3402,2.3453,2.3463,2.3502,2.3436,2.3436,2.3437,0,2.3306,2.3316,2.3353,2.3358,2.3365,2.3381,2.3394,2.3407,2.3415,2.3415,2.3424,2.3417,2.3438,2.3419,2.3448,2.343,2.3438,2.3441,2.3442,2.3445,2.3423,2.3458,2.3514,2.352,2.3446,2.3445,2.3444,0,2.3346,2.3369,2.3394,2.3399,2.3406,2.3417,2.3421,2.3428,2.3437,2.3448,2.3453,2.3467,2.3475,2.3486,2.3483,2.3469,2.3512,2.3493,2.3513,2.3513,2.3524,2.3523,2.3583,2.3528,2.3528,2.3528,2.3528,0,2.3395,2.3418,2.3412,2.3427,2.3451,2.3445,2.3469,2.3471,2.3477,2.3492,2.3482,2.3497,2.3492,2.3506,2.3504,2.3528,2.3532,2.3532,2.3532,2.3533,2.3533,2.354,2.3537,2.3529,2.3529,2.3529,2.3528,0,2.3445,2.3441,2.3467,2.3471,2.3472,2.349,2.3493,2.3507,2.3506,2.3526,2.353,2.3529,2.3545,2.3543,2.3562,2.356,2.359,2.3586,2.3587,2.3587,2.3607,2.3605,2.3673,2.3681,2.3621,2.3621,2.3622,0,2.3477,2.3493,2.3498,2.3507,2.3511,2.3526,2.3534,2.3528,2.3537,2.3547,2.356,2.3574,2.3586,2.3613,2.3614,2.3628,2.3624,2.3647,2.3627,2.3628,2.3625,2.3624,2.3626,2.3652,2.3652,2.3653,2.3653,0,2.3534,2.3531,2.3543,2.3554,2.3565,2.3574,2.3582,2.3589,2.3584,2.3595,2.361,2.3619,2.3637,2.3652,2.3665,2.3669,2.366,2.3659,2.3665,2.3667,2.3667,2.3668,2.3599,2.3658,2.3658,2.3657,2.3657,2.3657,2.3576,2.3589,2.3595,2.3608,2.3613,2.362,2.3633,2.3634,2.3646,2.366,2.3655,2.3673,2.3679,2.3695,2.37,2.3714,2.3706,2.3714,2.3716,2.3718,2.3721,2.3664,2.3716,2.3716,2.3716,2.3716,2.3716,0,2.3632,2.3634,2.3647,2.3657,2.3668,2.3657,2.3665,2.3675,2.369,2.3697,2.3708,2.3725,2.3739,2.3741,2.3754,2.3765,2.3762,2.3769,2.3769,2.377,2.3727,2.3721,2.3772,2.3772,2.3772,2.3772,2.3772,2.3772,2.3663,2.3686,2.3683,2.3708,2.371,2.3726,2.3732,2.3738,2.3743,2.3763,2.3774,2.3774,2.3779,2.3792,2.3804,2.3804,2.381,2.3819,2.3818,2.3778,2.3773,2.3767,2.3762,2.382,2.382,2.3859,2.3859,2.3859]}]]